Weather observations for the past three days for
Duluth International Airport
Imperial (Metric)
Date Time (cdt) Wind (mph) Vis. (mi.) Weather Sky Cond. Temperature (ºF) Relative Humidity Wind Chill (°F) Heat Index (°F) Pressure Precipitation (in)
Air Dwpt 6 hour altimeter (in) sea level (mb) 1 hr 3 hr 6 hr
Max. Min.
19 12:55 SW 12 10.00 A Few Clouds FEW060 78.1 53.1 79 62.1 42% 79 30.09 1018.7
19 11:55 W 8 10.00 Partly Cloudy SCT050 75.9 53.1 45% 78 30.09 1018.9
19 10:55 W 6 10.00 A Few Clouds FEW050 73.9 53.1 48% 30.1 1019.1
19 09:55 SW 9 10.00 A Few Clouds FEW050 73.9 55 52% 30.11 1019.4
19 08:55 W 10 10.00 A Few Clouds FEW050 71.1 55 57% 30.13 1020.0
19 07:55 W 6 10.00 Partly Cloudy SCT050 66.9 57 71% 30.14 1020.2
19 06:55 W 6 10.00 Partly Cloudy SCT050 62.1 55 62.1 57 78% 30.13 1020.2
19 05:55 W 6 10.00 Partly Cloudy SCT050 57 52 83% 30.12 1020.0
19 04:55 W 6 10.00 Partly Cloudy SCT055 57.9 52 81% 30.11 1019.5
19 03:55 W 6 10.00 Partly Cloudy SCT055 59 52 78% 30.11 1019.5
19 02:55 W 7 10.00 Partly Cloudy SCT055 60.1 52 75% 30.12 1019.7
19 01:55 W 6 10.00 Partly Cloudy SCT050 60.1 52 75% 30.12 1019.8
19 00:55 W 6 10.00 Fair CLR 60.1 52 75.9 60.1 75% 30.13 1020.1
18 23:55 W 6 10.00 Fair CLR 61 52 72% 30.12 1020.0
18 22:55 W 7 10.00 Fair CLR 62.1 53.1 73% 30.13 1020.1
18 21:55 W 5 10.00 Fair CLR 64.9 53.1 66% 30.13 1020.1
18 20:55 W 6 10.00 Fair CLR 68 53.1 59% 30.12 1019.8
18 19:55 W 8 10.00 A Few Clouds FEW055 73 51.1 46% 30.12 1020.0
18 18:55 W 8 10.00 A Few Clouds FEW055 75.9 51.1 78.1 73 42% 78 30.14 1020.5
18 17:55 W 10 G 17 10.00 Partly Cloudy SCT060 77 52 42% 78 30.15 1021.1
18 16:55 W 12 10.00 Partly Cloudy SCT055 75.9 51.1 42% 78 30.16 1021.4
18 15:55 Vrbl 7 10.00 A Few Clouds FEW055 75.9 48.9 39% 78 30.16 1021.6
18 14:55 W 10 10.00 A Few Clouds FEW055 75.9 50 40% 78 30.18 1022.0
18 13:55 SW 6 10.00 A Few Clouds FEW030 73.9 48.9 41% 30.19 1022.5
18 12:55 Calm 10.00 A Few Clouds FEW030 73 46 73 55 38% 30.2 1023.0
18 11:55 Calm 10.00 A Few Clouds FEW030 71.1 46 41% 30.21 1023.4
18 10:55 Vrbl 5 10.00 A Few Clouds FEW030 70 46.9 44% 30.22 1023.6
18 09:55 Vrbl 3 10.00 Fair CLR 69.1 46.9 45% 30.23 1023.7
18 08:55 NW 5 10.00 Fair CLR 66.9 52 59% 30.23 1023.8
18 07:55 NW 3 10.00 Fair CLR 61 52 72% 30.24 1024.2
18 06:55 NW 3 10.00 Fair CLR 55 50 55 48 83% 30.23 1024.1
18 05:55 Calm 10.00 A Few Clouds FEW120 48 45 89% 30.23 1024.0
18 04:55 Calm 10.00 Fair CLR 50 46 86% 30.22 1023.7
18 03:55 Calm 10.00 Fair CLR 50 46 86% 30.2 1022.9
18 02:55 N 3 10.00 Fair CLR 51.1 46 83% 30.19 1022.7
18 01:55 N 3 10.00 Fair CLR 50 46.9 89% 30.19 1022.9
18 00:55 NW 3 10.00 Fair CLR 52 48 68 51.1 86% 30.19 1022.8
17 23:55 NW 3 10.00 Fair CLR 53.1 48.9 86% 30.19 1022.6
17 22:55 N 3 10.00 A Few Clouds FEW120 55.9 50 81% 30.18 1022.2
17 21:55 N 3 10.00 A Few Clouds FEW120 57.9 50 75% 30.18 1022.2
17 20:55 N 5 10.00 Fair CLR 62.1 48.9 62% 30.16 1021.6
17 19:55 N 8 10.00 Fair CLR 66 48 52% 30.16 1021.5
17 18:55 NW 9 10.00 A Few Clouds FEW048 68 48 72 64.9 49% 30.16 1021.5
17 17:55 NW 9 10.00 A Few Clouds FEW048 70 48 46% 30.15 1021.3
17 16:55 NW 8 10.00 Mostly Cloudy FEW050 BKN060 68 48.9 51% 30.16 1021.5
17 15:55 N 7 10.00 Mostly Cloudy SCT049 BKN055 68 48 49% 30.16 1021.6
17 14:55 N 12 G 18 10.00 Mostly Cloudy FEW046 BKN055 68 46.9 47% 30.16 1021.6
17 13:55 NW 9 10.00 Mostly Cloudy FEW040 BKN055 66.9 48 51% 30.16 1021.5
17 12:55 NW 13 G 22 10.00 Overcast OVC055 64.9 48 68 54 54% 30.16 1021.6
17 11:55 N 12 10.00 Mostly Cloudy BKN049 64.9 48 54% 30.15 1021.4
17 10:55 N 8 G 20 10.00 Partly Cloudy SCT024 66 50 56% 30.14 1020.9
17 09:55 N 14 10.00 Partly Cloudy SCT024 61 48.9 65% 30.13 1020.4
17 08:55 N 10 G 22 10.00 Partly Cloudy SCT020 61 48.9 65% 30.11 1020.0
17 07:55 N 12 G 21 10.00 A Few Clouds FEW008 57 48 72% 30.1 1019.3
17 06:55 NW 9 10.00 A Few Clouds FEW008 54 48 57 52 80% 30.08 1018.8
17 05:55 N 10 10.00 A Few Clouds FEW008 52 48 86% 30.06 1018.0
17 04:55 N 10 10.00 Fair CLR 53.1 48 83% 30.04 1017.2
17 03:55 N 9 10.00 Fair CLR 54 50 87% 30.02 1016.5
17 02:55 NW 7 10.00 Fair CLR 55 51.1 87% 30 1015.9
17 01:55 NW 7 10.00 Fair CLR 55.9 52 87% 29.99 1015.4
17 00:55 NW 7 10.00 Fair CLR 57 52 69.1 55.9 83% 29.98 1015.2
16 23:55 NW 7 10.00 Fair CLR 57 51.1 81% 29.97 1014.7
16 22:55 NW 6 10.00 Overcast OVC085 60.1 51.1 72% 29.96 1014.3
16 21:55 NW 6 10.00 Mostly Cloudy BKN090 59 51.1 75% 29.95 1014.1
16 20:55 NW 8 10.00 A Few Clouds FEW090 61 50 67% 29.94 1013.9
16 19:55 N 9 10.00 Partly Cloudy SCT095 66 51.1 59% 29.92 1013.2
16 18:55 N 14 G 22 10.00 Mostly Cloudy BKN070 68 51.1 75.9 68 55% 29.92 1012.9
16 17:55 N 15 G 24 10.00 A Few Clouds FEW070 FEW085 73 50 44% 29.9 1012.3
16 16:55 NW 16 G 24 10.00 Partly Cloudy SCT090 73.9 48.9 41% 29.88 1011.8
16 15:55 NW 10 10.00 Mostly Cloudy BKN075 BKN095 73 50 44% 29.89 1011.9
16 14:55 W 15 G 26 10.00 Mostly Cloudy SCT065 BKN080 BKN090 75 48 39% 77 29.88 1011.6
16 13:55 NW 10 G 22 10.00 Partly Cloudy SCT060 73.9 48 40% 29.88 1011.6
Date Time (cdt) Wind (mph) Vis. (mi.) Weather Sky Cond. Air Dwpt Max. Min. Relative Humidity Wind Chill (°F) Heat Index (°F) altimeter (in) sea level (mb) 1 hr 3 hr 6 hr
6 hour
Temperature (ºF) Pressure Precipitation (in)